DW4641 Weather Reports


Display with metric or nautical units.
time (UTC)temp
F
wind
direction
speed
MPH
gust
MPH
rain 1hr
in
rain 24hr
in
rain mn
in
humidity
%
barometer
mb
20171211015327 34 211 1.0 3.0 0.00 0.14 0.14 66 1013.9
20171211014848 34 211 2.0 4.0 0.00 0.14 0.14 66 1013.9
20171211014344 34 211 1.0 13.0 0.01 0.14 0.14 66 1013.9
20171211013845 34 202 2.0 8.0 0.01 0.14 0.14 65 1013.9
20171211013335 34 224 4.0 8.0 0.01 0.14 0.14 65 1014.0
20171211012851 34 219 2.0 4.0 0.01 0.14 0.14 66 1014.0
20171211012351 34 226 2.0 7.0 0.01 0.14 0.14 66 1013.9
20171211011843 34 226 2.0 7.0 0.01 0.14 0.14 65 1013.9
20171211011340 34 221 2.0 5.0 0.01 0.14 0.14 66 1013.9
20171211010839 34 237 2.0 5.0 0.01 0.14 0.14 66 1013.9
20171211010401 34 210 2.0 5.0 0.01 0.14 0.14 66 1013.9
20171211005847 34 213 2.0 5.0 0.01 0.14 0.14 66 1013.8
20171211005347 34 210 2.0 8.0 0.01 0.14 0.14 66 1013.8
20171211004847 34 180 2.0 6.0 0.01 0.14 0.14 67 1013.7
20171211004344 34 244 3.0 6.0 0.00 0.13 0.13 67 1013.7
20171211003844 34 215 2.0 9.0 0.00 0.13 0.13 67 1013.5
20171211003344 34 227 3.0 9.0 0.00 0.13 0.13 67 1013.5
20171211002841 34 232 3.0 5.0 0.00 0.13 0.13 68 1013.3
20171211002343 34 218 2.0 5.0 0.00 0.13 0.13 69 1013.3
20171211001843 34 202 2.0 4.0 0.00 0.13 0.13 69 1013.3
20171211001341 34 176 1.0 6.0 0.00 0.13 0.13 69 1013.2
20171211000840 34 176 2.0 6.0 0.00 0.13 0.13 69 1013.1
20171211000350 34 178 1.0 4.0 0.00 0.13 0.13 70 1013.1
20171210235844 34 178 1.0 4.0 0.00 0.13 0.13 69 1013.1
20171210235345 34 208 2.0 6.0 0.00 0.13 0.13 68 1013.1
20171210234846 34 208 2.0 6.0 0.00 0.13 0.13 68 1013.1
20171210234344 34 198 2.0 6.0 0.00 0.13 0.13 68 1013.2
20171210233845 34 178 3.0 7.0 0.00 0.13 0.13 67 1013.1
20171210233344 34 198 3.0 7.0 0.00 0.13 0.13 67 1013.1
20171210232839 34 188 2.0 6.0 0.00 0.13 0.13 68 1013.1
20171210232339 35 188 2.0 6.0 0.00 0.13 0.13 67 1013.1
20171210231839 35 185 2.0 5.0 0.00 0.13 0.13 67 1013.1
20171210231336 35 184 1.0 4.0 0.00 0.13 0.13 67 1013.0
20171210230837 35 184 2.0 4.0 0.00 0.13 0.13 67 1012.9
20171210230338 35 184 2.0 5.0 0.00 0.13 0.13 67 1012.9
20171210225841 35 175 2.0 6.0 0.00 0.13 0.13 68 1012.8
20171210225343 35 176 2.0 6.0 0.01 0.13 0.13 68 1012.8
20171210224841 35 190 2.0 4.0 0.01 0.13 0.13 68 1012.7
20171210224344 35 190 1.0 5.0 0.01 0.13 0.13 69 1012.7
20171210223845 35 190 2.0 5.0 0.01 0.13 0.13 68 1012.5
20171210223339 35 190 2.0 4.0 0.01 0.13 0.13 68 1012.5
20171210222838 35 185 1.0 5.0 0.01 0.13 0.13 68 1012.4
20171210222339 35 185 2.0 5.0 0.01 0.13 0.13 68 1012.4
20171210221839 35 177 2.0 7.0 0.01 0.13 0.13 68 1012.3
20171210221336 35 174 3.0 7.0 0.01 0.13 0.13 67 1012.2
20171210220837 35 194 2.0 4.0 0.01 0.13 0.13 67 1012.1
20171210220355 35 194 1.0 3.0 0.01 0.13 0.13 67 1012.1
20171210215838 36 194 1.0 5.0 0.01 0.13 0.13 67 1012.1
20171210215348 36 194 1.0 5.0 0.00 0.12 0.12 66 1012.1
20171210214849 36 198 1.0 3.0 0.00 0.12 0.12 67 1012.0
20171210214347 36 198 1.0 4.0 0.00 0.12 0.12 66 1012.0
20171210213844 36 198 2.0 4.0 0.00 0.12 0.12 66 1012.0
20171210213340 36 236 1.0 3.0 0.00 0.12 0.12 66 1012.0
20171210212837 36 236 1.0 3.0 0.00 0.12 0.12 65 1012.0
20171210212338 36 255 1.0 2.0 0.00 0.12 0.12 65 1012.0
20171210211840 36 255 1.0 2.0 0.01 0.12 0.12 64 1011.9
20171210211338 36 255 1.0 3.0 0.01 0.12 0.12 63 1011.9
20171210210839 36 255 0.0 4.0 0.01 0.12 0.12 63 1011.9
20171210210337 36 261 1.0 4.0 0.01 0.12 0.12 63 1011.8
20171210205844 36 261 2.0 4.0 0.02 0.12 0.12 62 1011.8
20171210205345 36 243 2.0 7.0 0.02 0.12 0.12 62 1011.7
20171210204846 36 296 2.0 7.0 0.02 0.12 0.12 62 1011.6
20171210204342 36 193 2.0 6.0 0.02 0.12 0.12 61 1011.5
20171210203844 37 267 2.0 6.0 0.02 0.12 0.12 60 1011.4
20171210203336 37 292 3.0 6.0 0.03 0.12 0.12 60 1011.4
20171210202838 37 266 3.0 9.0 0.03 0.12 0.12 59 1011.3
20171210202333 37 274 3.0 9.0 0.04 0.12 0.12 59 1011.2
20171210201834 37 265 2.0 8.0 0.03 0.11 0.11 60 1011.2
20171210201354 37 231 3.0 8.0 0.03 0.11 0.11 59 1011.0
20171210200336 37 214 2.0 9.0 0.04 0.11 0.11 59 1010.9
20171210195844 38 313 3.0 12.0 0.04 0.10 0.10 58 1010.9
20171210195345 38 257 3.0 7.0 0.04 0.10 0.10 59 1010.8
20171210194846 38 229 3.0 7.0 0.05 0.10 0.10 60 1010.8
20171210194343 38 207 3.0 8.0 0.06 0.10 0.10 59 1010.7
20171210193844 38 269 3.0 9.0 0.07 0.10 0.10 59 1010.7
20171210193342 38 296 3.0 11.0 0.07 0.09 0.09 59 1010.7
20171210192839 38 207 5.0 11.0 0.09 0.09 0.09 58 1010.6
20171210192339 38 321 4.0 11.0 0.08 0.08 0.08 59 1010.5
20171210191840 39 257 3.0 11.0 0.08 0.08 0.08 58 1010.5
20171210191337 39 236 5.0 11.0 0.08 0.08 0.08 58 1010.3
20171210190838 39 299 2.0 8.0 0.07 0.07 0.07 60 1010.2
20171210190409 39 276 3.0 8.0 0.07 0.07 0.07 59 1010.1
20171210185847 39 232 4.0 10.0 0.06 0.06 0.06 58 1010.1
20171210185349 39 243 5.0 10.0 0.06 0.06 0.06 58 1010.0
20171210184851 39 281 4.0 10.0 0.05 0.05 0.05 57 1010.1
20171210184346 39 319 4.0 9.0 0.04 0.04 0.04 56 1010.3
20171210183844 39 230 4.0 9.0 0.03 0.03 0.03 58 1010.1
20171210183346 39 229 3.0 6.0 0.02 0.02 0.02 57 1010.1
20171210182844 39 221 2.0 5.0 0.00 0.00 0.00 58 1010.1
20171210182347 39 287 2.0 9.0 0.00 0.00 0.00 59 1010.1
20171210181842 39 321 4.0 9.0 0.00 0.00 0.00 59 1010.0
20171210181339 39 241 3.0 8.0 0.00 0.00 0.00 60 1009.9
20171210180840 39 283 4.0 8.0 0.00 0.00 0.00 59 1009.9
20171210180401 39 208 3.0 8.0 0.00 0.00 0.00 60 1009.8
20171210175846 38 273 3.0 6.0 0.00 0.00 0.00 60 1009.9
20171210175346 38 211 3.0 9.0 0.00 0.00 0.00 59 1009.9
20171210174847 38 286 2.0 9.0 0.00 0.00 0.00 61 1009.9
20171210174343 38 204 3.0 10.0 0.00 0.00 0.00 61 1009.8
20171210173844 38 301 5.0 10.0 0.00 0.00 0.00 59 1009.9
20171210173347 38 241 3.0 9.0 0.00 0.00 0.00 62 1009.8
20171210172841 38 182 3.0 11.0 0.00 0.00 0.00 62 1009.8
20171210172343 38 282 3.0 11.0 0.00 0.00 0.00 62 1009.8
20171210171843 38 275 3.0 9.0 0.00 0.00 0.00 62 1009.8
20171210171340 38 287 2.0 9.0 0.00 0.00 0.00 62 1009.9
20171210170839 37 290 2.0 6.0 0.00 0.00 0.00 63 1009.9
20171210170401 37 211 2.0 7.0 0.00 0.00 0.00 64 1009.9
20171210165847 37 221 2.0 7.0 0.00 0.00 0.00 64 1009.9
20171210165346 37 275 3.0 6.0 0.00 0.00 0.00 64 1009.9
20171210164847 36 240 3.0 9.0 0.00 0.00 0.00 65 1009.8
20171210164344 36 219 3.0 9.0 0.00 0.00 0.00 65 1009.8
20171210163846 36 238 3.0 8.0 0.00 0.00 0.00 66 1009.8
20171210163346 36 208 3.0 8.0 0.00 0.00 0.00 67 1009.9
20171210162843 35 290 3.0 7.0 0.00 0.00 0.00 68 1010.0
20171210162344 35 290 4.0 10.0 0.00 0.00 0.00 67 1010.1
20171210161834 35 212 4.0 10.0 0.00 0.00 0.00 68 1010.1
20171210161339 35 194 4.0 8.0 0.00 0.00 0.00 67 1010.2
20171210160837 34 255 3.0 8.0 0.00 0.00 0.00 69 1010.1
20171210160412 34 213 4.0 8.0 0.00 0.00 0.00 69 1010.2
20171210155831 34 267 3.0 9.0 0.00 0.00 0.00 69 1010.1
20171210155351 34 223 3.0 9.0 0.00 0.00 0.00 70 1010.1
20171210154847 34 247 3.0 9.0 0.00 0.00 0.00 70 1010.2
20171210154342 33 273 4.0 9.0 0.00 0.00 0.00 71 1010.3
20171210153844 33 173 3.0 9.0 0.00 0.00 0.00 71 1010.2
20171210153333 33 297 4.0 9.0 0.00 0.00 0.00 71 1010.2
20171210152840 33 223 3.0 6.0 0.00 0.00 0.00 72 1010.3
20171210152338 33 208 2.0 4.0 0.00 0.00 0.00 73 1010.3
20171210151839 33 209 2.0 8.0 0.00 0.00 0.00 74 1010.3
20171210151337 33 201 4.0 8.0 0.00 0.00 0.00 73 1010.3
20171210150837 32 232 2.0 7.0 0.00 0.00 0.00 74 1010.3
20171210150358 32 224 2.0 7.0 0.00 0.00 0.00 74 1010.2
20171210145843 32 248 2.0 5.0 0.00 0.00 0.00 75 1010.3
20171210145344 32 209 1.0 5.0 0.00 0.00 0.00 76 1010.3
20171210144845 32 221 1.0 3.0 0.00 0.00 0.00 76 1010.2
20171210144342 32 221 1.0 3.0 0.00 0.00 0.00 77 1010.3
20171210143843 31 230 1.0 3.0 0.00 0.00 0.00 77 1010.2
20171210143341 31 230 1.0 3.0 0.00 0.00 0.00 76 1010.1
20171210142835 31 259 2.0 4.0 0.00 0.00 0.00 77 1010.0
20171210142336 31 257 1.0 3.0 0.00 0.00 0.00 79 1009.9
20171210141837 31 238 1.0 3.0 0.00 0.00 0.00 79 1009.8
20171210141334 30 238 2.0 3.0 0.00 0.00 0.00 80 1009.8
20171210140836 30 238 1.0 3.0 0.00 0.00 0.00 81 1009.6
20171210140337 30 238 1.0 4.0 0.00 0.00 0.00 81 1009.6
20171210135842 30 240 1.0 3.0 0.00 0.00 0.00 82 1009.5
20171210135344 29 240 1.0 3.0 0.00 0.00 0.00 82 1009.4
20171210134845 29 240 1.0 3.0 0.00 0.00 0.00 83 1009.4
20171210134344 29 240 1.0 3.0 0.00 0.00 0.00 83 1009.4
20171210133846 29 240 1.0 3.0 0.00 0.00 0.00 84 1009.3
20171210133350 29 240 1.0 2.0 0.00 0.00 0.00 84 1009.3
20171210132847 29 240 1.0 2.0 0.00 0.00 0.00 85 1009.2
20171210132349 29 240 1.0 2.0 0.00 0.00 0.00 86 1009.1
20171210131849 29 240 0.0 2.0 0.00 0.00 0.00 86 1009.0
20171210131339 28 240 1.0 2.0 0.00 0.00 0.00 87 1009.0
20171210130837 28 240 1.0 2.0 0.00 0.00 0.00 88 1008.9
20171210130359 28 240 1.0 2.0 0.00 0.00 0.00 88 1008.7
20171210125847 28 240 0.0 1.0 0.00 0.00 0.00 88 1008.7
20171210125348 28 240 0.0 1.0 0.00 0.00 0.00 88 1008.6
20171210124847 28 240 0.0 1.0 0.00 0.00 0.00 89 1008.5
20171210124343 28 240 0.0 0.0 0.00 0.00 0.00 89 1008.5
20171210123844 28 240 0.0 0.0 0.00 0.00 0.00 89 1008.3
20171210123341 28 240 0.0 1.0 0.00 0.00 0.00 89 1008.2
20171210122836 28 240 0.0 1.0 0.00 0.00 0.00 89 1008.1
20171210122338 28 240 0.0 1.0 0.00 0.00 0.00 89 1008.1
20171210121840 28 240 0.0 1.0 0.00 0.00 0.00 89 1007.9
20171210121337 28 240 0.0 0.0 0.00 0.00 0.00 89 1007.8
20171210120838 28 240 0.0 2.0 0.00 0.00 0.00 89 1007.8
20171210120356 28 240 0.0 2.0 0.00 0.00 0.00 89 1007.7
20171210115843 28 240 0.0 1.0 0.00 0.00 0.00 89 1007.6
20171210115344 28 240 0.0 0.0 0.00 0.00 0.00 90 1007.4
20171210114846 28 240 0.0 0.0 0.00 0.00 0.00 90 1007.4
20171210114344 28 240 0.0 1.0 0.00 0.00 0.00 90 1007.3
20171210113844 28 240 0.0 1.0 0.00 0.00 0.00 90 1007.2
20171210113337 28 240 0.0 1.0 0.00 0.00 0.00 90 1007.2
20171210112836 28 240 0.0 0.0 0.00 0.00 0.00 90 1007.1
20171210112338 28 240 0.0 0.0 0.00 0.00 0.00 90 1007.0
20171210111839 28 240 0.0 0.0 0.00 0.00 0.00 90 1007.0
20171210111338 28 240 0.0 1.0 0.00 0.00 0.00 90 1006.9
20171210110838 28 240 0.0 2.0 0.00 0.00 0.00 90 1006.7
20171210110341 28 240 0.0 2.0 0.00 0.00 0.00 90 1006.7
20171210105849 28 240 0.0 0.0 0.00 0.00 0.00 90 1006.6
20171210105350 29 240 0.0 0.0 0.00 0.00 0.00 90 1006.4
20171210104849 29 240 0.0 1.0 0.00 0.00 0.00 90 1006.4
20171210104342 29 240 0.0 1.0 0.00 0.00 0.00 90 1006.4
20171210103844 29 240 0.0 1.0 0.00 0.00 0.00 90 1006.3
20171210103341 28 233 0.0 2.0 0.00 0.00 0.00 90 1006.3
20171210102840 28 233 0.0 2.0 0.00 0.00 0.00 90 1006.2
20171210102342 28 232 0.0 4.0 0.00 0.00 0.00 90 1006.1
20171210101843 28 231 1.0 4.0 0.00 0.00 0.00 90 1006.0
20171210101340 28 230 0.0 0.0 0.00 0.00 0.00 90 1005.9
20171210100838 28 230 0.0 1.0 0.00 0.00 0.00 90 1005.8
20171210100334 28 230 0.0 1.0 0.00 0.00 0.00 90 1005.8
20171210095842 28 230 0.0 1.0 0.00 0.00 0.00 90 1005.6
20171210095343 28 230 0.0 3.0 0.00 0.00 0.00 89 1005.5
20171210094845 28 230 1.0 3.0 0.00 0.00 0.00 89 1005.4
20171210094342 29 230 1.0 3.0 0.00 0.00 0.00 89 1005.2
20171210093844 29 230 0.0 3.0 0.00 0.00 0.00 89 1005.1
20171210093346 29 226 1.0 3.0 0.00 0.00 0.00 89 1005.2
20171210092847 29 267 0.0 3.0 0.00 0.00 0.00 89 1005.0
20171210092339 29 279 1.0 3.0 0.00 0.00 0.00 89 1005.0
20171210091839 29 281 1.0 3.0 0.00 0.00 0.00 89 1004.9
20171210091336 29 281 0.0 1.0 0.00 0.00 0.00 88 1004.9
20171210090837 29 281 0.0 1.0 0.00 0.00 0.00 89 1004.9
20171210090333 30 281 0.0 2.0 0.00 0.00 0.00 88 1004.9
20171210085836 30 281 1.0 2.0 0.00 0.00 0.00 88 1004.9
20171210085336 30 285 0.0 4.0 0.00 0.00 0.00 88 1004.9
20171210084849 30 285 2.0 4.0 0.00 0.00 0.00 88 1004.9
20171210084347 30 290 0.0 4.0 0.00 0.00 0.00 89 1004.8
20171210083843 30 290 0.0 4.0 0.00 0.00 0.00 89 1004.8
20171210083333 30 296 0.0 2.0 0.00 0.00 0.00 89 1004.7
20171210082849 30 296 1.0 2.0 0.00 0.00 0.00 89 1004.7
20171210082349 30 297 0.0 2.0 0.00 0.00 0.00 89 1004.5
20171210081850 30 297 0.0 2.0 0.00 0.00 0.00 89 1004.6
20171210081338 30 298 0.0 1.0 0.00 0.00 0.00 89 1004.7
20171210080839 30 298 0.0 1.0 0.00 0.00 0.00 89 1004.7
20171210080333 30 298 0.0 1.0 0.00 0.00 0.00 89 1004.6
20171210075843 30 298 0.0 1.0 0.00 0.00 0.00 89 1004.6
20171210075344 30 298 0.0 2.0 0.00 0.00 0.00 89 1004.7
20171210074845 30 298 0.0 2.0 0.00 0.00 0.00 89 1004.7
20171210074342 30 300 0.0 1.0 0.00 0.00 0.00 89 1004.5
20171210073843 30 300 0.0 1.0 0.00 0.00 0.00 89 1004.2
20171210073347 30 300 0.0 1.0 0.00 0.00 0.00 89 1004.2
20171210072849 30 300 0.0 1.0 0.00 0.00 0.00 89 1004.3
20171210072333 30 301 0.0 1.0 0.00 0.00 0.00 89 1004.2
20171210071833 30 321 0.0 2.0 0.00 0.00 0.00 89 1004.2
20171210071337 30 321 0.0 2.0 0.00 0.00 0.00 89 1004.4
20171210070837 30 322 0.0 1.0 0.00 0.00 0.00 90 1004.3
20171210070427 30 322 0.0 1.0 0.00 0.00 0.00 90 1004.2
20171210065845 30 322 0.0 0.0 0.00 0.00 0.00 90 1004.1
20171210065346 30 322 0.0 1.0 0.00 0.00 0.00 90 1004.1
20171210064847 30 322 0.0 1.0 0.00 0.00 0.00 90 1004.1
20171210064342 30 322 0.0 0.0 0.00 0.00 0.00 90 1004.1
20171210063844 30 322 0.0 1.0 0.00 0.00 0.00 90 1003.9
20171210063341 30 322 0.0 1.0 0.00 0.00 0.00 90 1003.8
20171210062839 30 322 0.0 1.0 0.00 0.00 0.00 90 1003.9
20171210062339 30 322 0.0 1.0 0.00 0.00 0.00 90 1003.9
20171210061839 30 322 0.0 1.0 0.00 0.00 0.00 90 1003.9
20171210061337 30 322 0.0 1.0 0.00 0.00 0.00 90 1003.8
20171210060837 30 322 0.0 1.0 0.00 0.00 0.00 90 1003.8
20171210060428 30 322 0.0 1.0 0.00 0.00 0.00 90 1003.8
20171210055841 30 322 0.0 1.0 0.00 0.00 0.00 90 1003.6
20171210055343 30 322 0.0 1.0 0.00 0.00 0.00 90 1003.6
20171210054845 30 322 0.0 1.0 0.00 0.00 0.00 90 1003.5
20171210054342 30 322 0.0 1.0 0.00 0.00 0.00 90 1003.6
20171210053844 30 322 0.0 1.0 0.00 0.00 0.00 90 1003.4
20171210053337 30 322 0.0 1.0 0.00 0.00 0.00 90 1003.5
20171210052835 30 322 0.0 1.0 0.00 0.00 0.00 91 1003.7
20171210052337 30 322 0.0 1.0 0.00 0.00 0.00 91 1003.7
20171210051836 30 322 0.0 1.0 0.00 0.00 0.00 91 1003.6
20171210051334 30 322 0.0 1.0 0.00 0.00 0.00 91 1003.7
20171210050834 30 322 0.0 0.0 0.00 0.00 0.00 91 1003.7
20171210050422 30 322 0.0 1.0 0.00 0.00 0.00 91 1003.8
20171210045845 30 322 0.0 2.0 0.00 0.00 0.00 92 1003.8
20171210045344 30 322 0.0 2.0 0.00 0.00 0.00 91 1003.9
20171210044845 30 322 0.0 2.0 0.00 0.00 0.00 92 1003.9
20171210044342 30 318 0.0 1.0 0.00 0.00 0.00 92 1004.0
20171210043843 30 351 0.0 5.0 0.00 0.00 0.00 92 1004.0
20171210043342 30 234 1.0 5.0 0.00 0.00 0.00 92 1004.1
20171210042840 30 224 0.0 4.0 0.00 0.00 0.00 93 1004.2
20171210042339 30 224 0.0 3.0 0.00 0.00 0.00 93 1004.0
20171210041841 30 223 0.0 3.0 0.00 0.00 0.00 93 1003.9
20171210041338 30 216 1.0 3.0 0.00 0.00 0.00 93 1004.0
20171210040838 30 216 0.0 4.0 0.00 0.00 0.00 93 1004.0
20171210040351 30 216 1.0 4.0 0.00 0.00 0.00 93 1003.9
20171210035832 30 144 0.0 0.0 0.00 0.00 0.00 93 1003.9
20171210035335 30 126 0.0 0.0 0.00 0.00 0.00 93 1004.0
20171210034832 30 123 0.0 0.0 0.00 0.00 0.00 93 1004.0
20171210034343 30 122 0.0 0.0 0.00 0.00 0.00 93 1004.0
20171210033842 30 103 0.0 0.0 0.00 0.00 0.00 93 1003.9
20171210033347 30 126 0.0 0.0 0.00 0.00 0.00 93 1003.9
20171210032843 30 78 0.0 0.0 0.00 0.00 0.00 93 1004.2
20171210032345 30 78 0.0 0.0 0.00 0.00 0.00 93 1004.3
20171210031845 30 78 0.0 0.0 0.00 0.00 0.00 93 1004.2
20171210031339 30 78 0.0 0.0 0.00 0.00 0.00 93 1004.2
20171210030837 30 79 0.0 0.0 0.00 0.00 0.00 93 1004.2
20171210030414 30 79 0.0 0.0 0.00 0.00 0.00 93 1004.2
20171210025843 30 79 0.0 0.0 0.00 0.00 0.00 93 1003.8
20171210025342 30 79 0.0 0.0 0.00 0.00 0.00 93 1003.9
20171210024842 30 77 0.0 0.0 0.00 0.00 0.00 93 1003.8
20171210024340 30 71 0.0 0.0 0.00 0.00 0.00 93 1003.9
20171210023843 30 71 0.0 0.0 0.00 0.00 0.00 93 1004.0
20171210023341 30 72 0.0 0.0 0.00 0.00 0.00 93 1004.0
20171210022839 30 69 0.0 0.0 0.00 0.00 0.00 93 1004.3
20171210022339 30 69 0.0 0.0 0.00 0.00 0.00 93 1003.9
20171210021838 30 69 0.0 0.0 0.00 0.00 0.00 93 1003.9
20171210021334 30 69 0.0 0.0 0.00 0.00 0.00 93 1004.0
20171210020836 30 69 0.0 0.0 0.00 0.00 0.00 93 1004.2
20171210020418 30 69 0.0 0.0 0.00 0.00 0.00 93 1004.3
20171210015837 30 69 0.0 0.0 0.00 0.00 0.00 93 1004.2